Flag for U.S.A. Weather past 2 weeks in Boca Raton, Florida, U.S.A.

Now
84 °F

Warm.


Feels Like: 91 °F
Forecast: 79 / 89 °F
Wind: 6 mph from Southeast

Location: Pompano Beach - Pompano Beach Airpark

Current Time: Aug 28, 2014 at 7:33:32 AM

Latest Report: Aug 28, 2014 at 6:53 AM


Visibility: 10 mi

Pressure: 29.96 "Hg

Humidity: 72%

Dew point: 74 °F

Location of Boca RatonLocation

Historic Weather in Boca Raton — Graph

°F

Boca Raton temperature yesterday

Maximum temperature yesterday: 91 °F (at 2:53 PM)
Minimum temperature yesterday: 79 °F (at 4:53 AM)
Average temperature yesterday: 86 °F

Past Weeks' High & Low Weather Summary

 TemperatureHumidityPressure
High93 °F (Aug 13, 12:53 PM)91% (Aug 14, 8:53 PM)30.12 "Hg (Aug 14, 8:53 PM)
Low74 °F (Aug 15, 2:53 PM)52% (Aug 24, 1:53 PM)29.74 "Hg (Aug 25, 3:53 PM)
Average86 °F70%29.99 "Hg
* Reported Aug 13 5:53 AM — Aug 28 5:53 AM, Boca Raton, Weather by CustomWeather, © 2014

Note: Actual official high and low records may vary slightly from our data, if they occured in-between our weather recording intervals... More about our weather records

Advertising

Boca Raton weather history for previous 24 hours

 ConditionsComfort  
Time TempWeatherWind HumidityBarometerVisibility
5:53 AM
Aug 28
84 °FWarm.8 mph74%29.95 "Hg10 mi
4:53 AM85 °FWarm.5 mph70%29.95 "Hg10 mi
3:53 AM84 °FPassing clouds.7 mph70%29.95 "Hg10 mi
2:53 AM84 °FPassing clouds.6 mph67%29.97 "Hg10 mi
1:53 AM85 °FPassing clouds.7 mph65%29.98 "Hg10 mi
12:53 AM85 °FPassing clouds.10 mph68%29.99 "Hg10 mi
11:53 PM
Aug 27
84 °FClear.8 mph65%29.99 "Hg10 mi
10:53 PM84 °FClear.7 mph67%29.98 "Hg10 mi
9:53 PM85 °FClear.8 mph63%29.98 "Hg10 mi
8:53 PM85 °FClear.8 mph63%29.97 "Hg10 mi
7:53 PM86 °FSunny.12 mph63%29.95 "Hg10 mi
6:53 PM87 °FSunny.12 mph61%29.94 "Hg10 mi
5:53 PM88 °FPassing clouds.13 mph59%29.93 "Hg10 mi
4:53 PM89 °FSunny.12 mph57%29.92 "Hg10 mi
3:53 PM90 °FSunny.12 mph56%29.93 "Hg10 mi
2:53 PM91 °FSunny.16 mph54%29.93 "Hg10 mi
1:53 PM90 °FSunny.14 mph57%29.95 "Hg10 mi
12:53 PM90 °FSunny.13 mph54%29.95 "Hg10 mi
11:53 AM90 °FSunny.10 mph52%29.96 "Hg10 mi
10:53 AM89 °FPassing clouds.10 mph55%29.96 "Hg10 mi
9:53 AM87 °FSunny.8 mph57%29.96 "Hg10 mi
8:53 AM86 °FSunny.10 mph57%29.94 "Hg10 mi
7:53 AM82 °FPassing clouds.3 mph70%29.93 "Hg10 mi
Weather by CustomWeather, © 2014

See weather overviewHow to use our weather pages